Location: Ammerl�gen
(47.2167°N, 9.6000°E)
Time: 04:10:49
(UTC+00:00)

Nimbus 7 Rocket - Pass Details

Date: 21 April 2021
Orbit: 922 x 965 km, 99.4° (Epoch: 16 May)

Event Time Altitude Azimuth Distance (km) Brightness Sun altitude
Rises 23:16:13 0° 14° (NNE) 3,585 8.5 -30.6°
Reaches altitude 10° 23:18:39 10° 13° (NNE) 2,635 7.6 -30.6°
Enters shadow 23:24:09 75° 330° (NNW) 959 4.4 -30.6°
